Wind_Speed
33 33 33 32 32 32 31 31 30 31 31 30 30 30 30 29 29 29 30 30 29 29 29 29 28 28 27 27 27 27 27 26 26 25 25 25 24 24 24 23 23 23 22
35 35 35 34 34 34 33 32 32 32 32 31 31 31 31 31 31 31 31 31 31 31 31 30 30 30 30 29 29 28 28 29 29 28 27 27 27 27 26 26 26 25 24
37 37 37 36 36 35 35 34 34 33 33 33 33 33 33 32 32 32 32 32 32 32 32 32 32 31 31 31 31 31 30 30 30 31 30 30 30 30 29 29 28 28 27
39 38 38 38 37 37 37 36 35 34 35 34 34 34 34 34 33 33 33 33 33 33 33 34 33 33 32 32 32 32 31 32 32 32 32 32 32 32 32 32 31 30 30
40 40 40 39 39 39 38 37 38 37 35 35 35 35 35 35 35 34 35 35 35 35 35 35 35 35 34 34 34 34 34 34 34 34 34 34 34 34 34 34 33 33 33
41 41 41 40 40 40 40 39 38 38 38 38 37 37 37 37 37 37 37 37 37 37 37 37 37 37 37 37 36 37 37 36 36 37 37 36 36 36 36 36 35 35 35
42 42 42 42 41 41 40 40 40 39 39 40 40 40 39 39 39 39 39 39 39 39 39 39 39 39 39 39 39 39 38 38 38 39 38 38 39 39 38 38 37 37 37
43 42 42 42 42 42 41 41 41 41 41 41 41 41 41 41 41 41 41 41 41 41 40 41 41 41 41 41 42 42 41 41 40 40 40 40 40 40 40 40 39 39 39
45 44 43 43 44 43 43 42 41 41 42 42 42 43 43 42 42 42 43 43 43 43 43 42 42 42 43 43 44 44 44 44 43 43 43 42 42 42 42 42 41 41 41
46 47 46 46 46 46 45 44 43 43 42 42 43 44 44 45 45 45 45 45 45 45 45 45 45 45 45 45 45 45 45 45 45 45 44 43 43 43 43 43 43 43 43
47 48 48 48 48 47 47 47 46 45 45 45 45 46 46 46 47 47 46 46 46 47 47 48 48 48 47 47 47 46 46 46 46 46 46 46 46 45 45 45 45 45 45
47 48 49 49 49 49 48 48 49 48 47 48 48 48 48 48 48 49 49 49 48 48 48 49 49 50 50 50 49 48 48 48 47 47 47 47 47 47 47 47 47 47 47
48 48 49 50 50 50 49 49 50 50 50 49 49 48 49 49 49 50 50 50 50 51 51 50 51 51 51 51 51 51 50 50 49 49 49 49 49 49 49 49 49 49 49
50 50 50 51 51 51 51 51 51 51 52 52 51 50 51 51 51 51 52 52 53 52 52 52 52 52 52 52 53 53 52 52 51 51 51 50 50 51 51 51 51 50 50
51 52 52 51 52 52 53 53 52 52 53 53 52 52 52 52 53 53 53 53 54 53 53 53 54 53 53 53 53 54 54 53 53 54 54 53 52 52 52 52 52 52 52
52 52 53 54 53 53 53 53 53 52 52 52 52 52 53 53 54 54 54 54 54 54 54 54 54 54 54 54 54 54 54 54 55 55 55 54 54 54 53 53 53 52 53
52 53 54 54 54 54 54 54 53 53 53 53 53 53 54 55 55 55 54 54 54 54 54 53 54 54 54 53 53 53 53 54 54 55 55 55 55 54 54 54 54 54 54
51 52 53 52 52 53 54 54 55 54 54 53 53 54 55 55 55 55 55 55 55 55 55 54 54 54 55 55 55 55 55 55 55 55 55 55 55 55 55 55 55 55 55
49 50 51 52 53 53 53 53 53 54 54 54 54 53 54 54 55 55 55 55 55 55 55 55 55 55 55 55 56 56 56 56 56 56 56 56 56 56 56 57 57 56 55
48 49 50 51 53 53 53 52 51 52 52 52 53 54 55 55 56 56 56 56 56 56 56 56 56 55 55 55 56 56 56 56 56 56 56 56 56 57 57 57 57 57 57
48 49 50 51 52 53 54 53 52 52 51 52 53 54 55 55 56 56 56 56 56 56 57 57 57 57 56 56 56 56 56 55 55 55 56 56 56 57 57 57 57 57 57
49 49 50 50 52 52 53 53 53 53 52 52 53 53 53 54 55 56 56 56 56 56 57 57 57 57 57 57 56 56 55 55 55 54 54 55 56 56 56 56 56 56 57
48 49 49 50 50 51 52 53 53 53 53 53 53 52 51 51 52 53 54 56 57 56 56 56 56 56 56 56 56 56 56 55 55 55 55 55 56 56 56 55 56 57 57
47 48 49 50 50 51 51 52 53 53 53 53 53 53 52 51 52 53 54 55 56 56 56 56 56 56 56 56 56 56 55 55 55 55 56 55 55 55 55 55 56 56 56
47 48 49 49 50 50 50 51 53 54 53 54 54 54 54 54 53 54 54 54 55 55 56 56 56 56 56 55 55 55 55 55 55 55 55 55 54 55 55 56 56 56 56
46 47 48 49 49 49 50 51 52 53 53 54 54 54 54 54 53 53 54 54 54 54 54 55 55 55 54 54 54 53 54 54 54 54 54 55 54 55 54 54 54 54 55
Wind_Direction
248 247 248 249 249 250 250 252 253 254 253 254 254 255 254 254 254 254 255 255 256 257 257 257 258 259 260 261 262 261 262 263 264 264 265 266 268 269 269 268 268 268 270
248 249 248 249 249 251 251 251 252 254 255 255 255 255 256 255 255 255 255 255 256 257 257 258 259 259 260 260 261 262 264 264 264 265 265 265 266 266 267 268 269 269 268
250 251 250 249 250 251 252 252 254 255 256 256 255 255 256 256 256 256 256 255 256 257 258 258 259 259 260 260 261 262 263 264 265 265 265 266 265 265 266 267 267 266 267
250 251 250 250 251 251 251 252 253 254 255 255 255 255 256 257 257 257 256 256 256 257 258 258 258 258 259 260 261 262 263 263 264 265 265 265 265 266 266 266 266 266 266
251 251 250 250 251 251 251 252 252 253 254 254 255 256 256 257 258 257 257 257 257 258 259 258 258 259 259 260 261 262 262 263 264 265 265 265 265 266 266 266 266 267 267
250 249 250 249 251 252 252 252 254 254 254 255 255 256 257 257 257 257 258 258 258 258 258 259 260 260 260 260 261 262 263 264 264 265 265 266 266 266 266 266 266 267 267
249 249 250 251 251 252 252 252 254 255 256 256 256 256 256 256 257 257 258 259 259 259 260 260 261 261 261 261 261 262 263 263 264 266 266 266 266 266 266 266 267 267 267
249 250 250 251 251 252 253 254 255 256 256 256 255 255 256 257 257 259 259 260 260 261 261 262 262 263 263 263 262 262 263 264 264 265 265 265 266 266 266 266 267 267 267
250 251 250 250 251 252 253 255 255 256 257 257 256 256 257 257 258 259 260 261 262 263 263 263 263 264 264 263 262 262 262 262 264 264 265 265 265 266 266 266 266 267 267
251 252 251 251 251 251 252 254 255 257 258 258 257 257 258 258 258 259 260 262 263 263 264 264 263 264 264 264 263 262 262 262 263 263 264 264 265 265 265 265 266 266 266
253 252 252 252 252 251 251 253 255 256 256 257 258 258 258 259 259 260 260 262 262 262 263 264 264 263 263 262 262 262 263 263 263 264 264 264 264 265 265 265 265 265 265
254 253 252 252 252 252 253 254 255 256 256 257 258 259 259 260 260 261 260 261 262 262 262 263 263 263 263 263 262 262 263 264 264 265 265 265 264 264 265 265 264 265 266
253 254 252 252 252 252 253 255 256 256 257 258 259 260 260 260 261 262 262 262 263 264 264 263 263 263 263 263 263 263 264 264 265 264 264 265 265 265 265 265 265 265 266
254 253 253 253 252 253 254 255 255 256 257 259 260 261 261 261 262 263 263 264 264 264 264 264 264 264 263 263 263 263 264 264 264 264 264 264 265 265 265 265 264 265 265
254 253 253 253 253 253 254 255 255 256 258 259 260 261 262 262 262 263 263 264 264 264 264 264 264 264 263 263 264 264 264 264 265 265 265 265 265 265 265 264 264 264 264
255 254 254 254 254 254 255 256 256 256 257 258 260 262 262 262 264 263 264 264 264 265 264 264 264 264 264 264 264 264 265 265 265 265 265 265 265 265 264 263 263 263 264
257 256 255 255 255 255 256 257 257 256 257 258 261 261 261 261 263 263 264 265 264 265 265 264 264 264 264 264 264 265 265 265 265 265 265 265 265 265 264 263 262 263 263
259 258 257 256 256 257 257 258 258 258 258 259 261 261 261 261 262 264 265 265 265 265 264 264 264 264 264 264 265 265 266 265 265 265 265 265 264 264 264 264 264 264 264
260 260 259 258 257 257 258 259 260 260 261 261 261 261 261 260 262 263 264 265 265 264 264 264 264 264 265 265 265 266 267 267 266 265 265 264 263 264 264 263 264 264 264
261 261 260 260 259 258 258 259 260 260 261 261 261 262 262 261 262 262 263 264 264 263 264 265 265 265 265 266 266 266 266 266 266 266 265 264 264 263 264 263 264 264 264
263 262 261 261 260 260 259 260 260 260 260 262 263 263 263 263 263 263 264 264 264 264 264 265 266 266 266 266 266 267 266 266 265 265 264 264 264 264 263 264 264 264 264
264 263 262 262 261 260 259 259 260 260 261 262 263 264 264 264 264 264 264 265 265 265 266 266 266 265 266 266 266 266 266 265 265 264 264 264 264 264 264 263 264 264 265
264 264 263 263 262 261 260 260 260 261 262 262 263 264 264 265 264 265 266 266 267 266 267 267 266 266 266 266 267 267 266 266 265 265 264 264 264 264 264 264 264 264 264
264 264 264 263 263 262 261 261 261 261 262 262 263 264 265 266 267 267 267 267 267 267 267 267 267 267 267 266 266 267 267 266 265 265 265 265 265 265 265 265 265 265 265
266 266 265 264 263 263 263 262 262 262 262 262 263 264 265 266 267 268 268 267 267 267 267 267 267 268 268 267 266 266 266 266 265 265 265 265 265 265 265 266 266 267 267
267 267 266 264 263 263 264 264 264 263 263 263 264 265 265 266 266 267 268 268 268 268 268 267 268 268 267 267 266 266 265 265 265 265 266 266 266 266 265 266 266 267 268
Height
5786 5788 5790 5791 5792 5794 5795 5796 5797 5798 5799 5800 5802 5802 5804 5804 5805 5806 5806 5807 5808 5809 5810 5810 5811 5811 5812 5812 5812 5812 5813 5813 5813 5813 5814 5814 5814 5815 5815 5815 5815 5815 5815
5779 5780 5782 5783 5785 5786 5788 5789 5790 5791 5792 5793 5794 5795 5796 5797 5798 5798 5799 5800 5801 5802 5803 5804 5804 5805 5805 5806 5806 5806 5807 5807 5807 5808 5808 5808 5809 5809 5809 5809 5809 5809 5809
5770 5772 5774 5775 5777 5778 5780 5781 5782 5783 5784 5785 5787 5788 5789 5789 5790 5791 5792 5793 5794 5794 5795 5796 5797 5798 5799 5799 5800 5800 5800 5800 5801 5801 5801 5802 5802 5802 5803 5803 5803 5803 5803
5761 5763 5765 5766 5768 5770 5771 5773 5774 5775 5777 5778 5779 5780 5781 5782 5782 5783 5784 5785 5786 5787 5788 5789 5790 5791 5792 5792 5792 5793 5793 5793 5793 5794 5794 5795 5795 5795 5796 5796 5796 5796 5797
5751 5753 5755 5757 5759 5761 5762 5764 5765 5767 5768 5770 5771 5772 5773 5774 5775 5775 5776 5777 5778 5779 5780 5781 5782 5783 5783 5784 5785 5785 5785 5785 5786 5786 5786 5787 5787 5788 5788 5788 5789 5789 5789
5741 5743 5745 5747 5749 5751 5753 5755 5756 5758 5759 5761 5762 5763 5764 5765 5766 5767 5768 5769 5769 5770 5771 5772 5773 5774 5775 5776 5776 5777 5777 5777 5777 5777 5778 5778 5779 5779 5780 5780 5780 5780 5781
5731 5733 5735 5737 5739 5741 5743 5745 5747 5748 5750 5751 5752 5754 5755 5756 5756 5758 5758 5759 5760 5761 5762 5763 5764 5765 5766 5766 5767 5767 5768 5768 5768 5768 5769 5769 5769 5770 5770 5771 5771 5772 5772
5721 5723 5725 5727 5729 5731 5733 5735 5737 5738 5740 5741 5742 5744 5745 5747 5747 5748 5749 5750 5751 5752 5752 5753 5754 5755 5756 5756 5757 5757 5758 5758 5758 5758 5759 5759 5759 5760 5760 5761 5761 5762 5763
5710 5712 5715 5717 5719 5721 5723 5725 5727 5728 5730 5731 5731 5733 5734 5736 5737 5738 5738 5739 5740 5741 5742 5743 5744 5744 5745 5745 5746 5747 5747 5748 5748 5748 5749 5749 5749 5750 5750 5750 5751 5752 5752
5700 5702 5704 5706 5708 5711 5713 5714 5716 5718 5719 5720 5721 5722 5724 5725 5726 5728 5729 5729 5729 5730 5731 5732 5732 5733 5733 5734 5734 5735 5736 5736 5737 5737 5737 5738 5738 5738 5739 5739 5740 5740 5741
5688 5690 5693 5695 5697 5699 5701 5703 5705 5706 5707 5709 5710 5711 5712 5713 5714 5716 5718 5718 5718 5718 5719 5720 5720 5721 5721 5722 5722 5723 5724 5724 5725 5725 5725 5726 5727 5727 5727 5728 5728 5729 5729
5677 5679 5681 5683 5685 5687 5689 5691 5693 5694 5695 5697 5698 5699 5700 5701 5702 5703 5704 5705 5706 5706 5706 5707 5707 5708 5708 5709 5710 5710 5711 5712 5712 5713 5713 5713 5714 5715 5715 5716 5716 5717 5717
5665 5667 5669 5671 5673 5675 5677 5679 5681 5682 5683 5684 5686 5686 5687 5688 5689 5690 5691 5692 5693 5693 5693 5694 5694 5694 5695 5695 5696 5697 5698 5699 5699 5699 5700 5700 5701 5702 5703 5703 5704 5704 5705
5652 5654 5656 5659 5661 5663 5664 5666 5668 5669 5670 5671 5673 5674 5675 5676 5676 5677 5677 5678 5679 5680 5680 5680 5680 5680 5680 5681 5682 5683 5684 5685 5685 5686 5686 5687 5688 5688 5689 5690 5691 5691 5692
5639 5641 5643 5645 5647 5649 5651 5652 5654 5655 5657 5658 5659 5660 5661 5662 5663 5663 5663 5664 5664 5665 5666 5666 5666 5666 5666 5666 5667 5668 5669 5670 5671 5671 5672 5673 5674 5674 5675 5676 5677 5678 5678
5626 5628 5630 5632 5634 5636 5637 5639 5641 5642 5643 5644 5645 5647 5648 5648 5649 5649 5649 5649 5649 5649 5650 5651 5650 5650 5651 5651 5652 5652 5653 5654 5655 5656 5657 5658 5659 5660 5661 5662 5663 5664 5665
5613 5614 5616 5618 5620 5622 5624 5625 5627 5628 5629 5630 5632 5633 5634 5634 5634 5634 5634 5634 5634 5634 5635 5636 5635 5635 5635 5636 5637 5637 5638 5638 5639 5640 5641 5642 5643 5645 5646 5647 5648 5649 5650
5600 5601 5603 5604 5606 5608 5609 5611 5613 5614 5615 5616 5617 5618 5619 5620 5620 5620 5620 5620 5620 5620 5620 5621 5621 5621 5621 5621 5622 5622 5622 5623 5624 5625 5626 5627 5628 5630 5631 5632 5633 5634 5635
5587 5588 5590 5591 5593 5594 5596 5597 5598 5599 5600 5602 5602 5603 5604 5605 5605 5605 5605 5605 5605 5605 5605 5606 5606 5606 5606 5606 5606 5607 5607 5608 5608 5609 5610 5612 5613 5614 5616 5617 5618 5619 5620
5574 5575 5576 5578 5579 5580 5582 5583 5584 5585 5586 5587 5588 5589 5589 5590 5590 5590 5590 5590 5590 5590 5590 5590 5591 5591 5591 5590 5590 5591 5591 5592 5593 5593 5594 5596 5597 5599 5600 5601 5603 5604 5605
5561 5562 5563 5564 5565 5566 5567 5568 5570 5571 5572 5572 5573 5574 5574 5574 5575 5575 5575 5575 5575 5575 5575 5575 5575 5575 5575 5575 5575 5575 5576 5576 5577 5577 5579 5580 5582 5584 5584 5585 5586 5587 5589
5548 5548 5549 5550 5550 5551 5553 5554 5555 5556 5557 5558 5559 5559 5559 5559 5559 5560 5560 5560 5560 5560 5560 5559 5560 5560 5560 5560 5560 5559 5560 5561 5562 5564 5563 5565 5566 5567 5568 5570 5570 5571 5573
5534 5534 5535 5535 5536 5537 5537 5539 5540 5541 5542 5543 5544 5544 5544 5544 5544 5544 5544 5544 5544 5544 5544 5544 5544 5544 5544 5545 5545 5545 5544 5545 5546 5547 5547 5550 5550 5551 5553 5553 5554 5555 5556
5520 5520 5520 5521 5522 5522 5523 5524 5525 5526 5528 5528 5529 5529 5530 5529 5529 5529 5529 5529 5528 5528 5529 5528 5529 5529 5528 5528 5528 5529 5529 5530 5531 5531 5531 5534 5535 5536 5537 5538 5538 5539 5539
5506 5506 5506 5507 5507 5508 5508 5509 5510 5511 5512 5513 5514 5514 5514 5514 5514 5514 5514 5513 5513 5513 5512 5511 5512 5512 5512 5512 5512 5512 5513 5514 5516 5517 5517 5518 5520 5521 5522 5523 5523 5523 5523
5492 5492 5492 5492 5493 5493 5494 5494 5495 5496 5497 5498 5499 5499 5499 5499 5498 5497 5497 5497 5497 5497 5496 5496 5496 5496 5496 5496 5496 5496 5497 5499 5500 5502 5503 5503 5504 5505 5507 5508 5508 5507 5508